GW6623 Weather Reports


time (UTC)temp
C
wind
direction
speed
KPH
gust
KPH
rain 1hr
cm
rain 24hr
cm
rain mn
cm
humidity
%
barometer
mb
20260906223700 27 204 3.2 6.4 0.00 0.00 0.00 20 1015.4
20260906223201 27 181 1.6 9.7 0.00 0.00 0.00 19 1015.5
20260906222659 27 132 0.0 4.8 0.00 0.00 0.00 21 1015.4
20260906222157 27 116 1.6 6.4 0.00 0.00 0.00 21 1015.4
20260906221656 27 190 6.4 12.9 0.00 0.00 0.00 19 1015.5
20260906221150 27 189 4.8 12.9 0.00 0.00 0.00 20 1015.5
20260906220646 27 203 3.2 4.8 0.00 0.00 0.00 21 1015.5
20260906220141 27 167 6.4 6.4 0.00 0.00 0.00 19 1015.9
20260906215640 28 203 4.8 27.4 0.00 0.00 0.00 18 1015.9
20260906215139 28 126 4.8 9.7 0.00 0.00 0.00 19 1015.6
20260906214637 28 168 4.8 9.7 0.00 0.00 0.00 18 1015.5
20260906214132 28 136 6.4 12.9 0.00 0.00 0.00 18 1015.5
20260906213631 28 124 4.8 6.4 0.00 0.00 0.00 20 1015.7
20260906213126 28 159 4.8 9.7 0.00 0.00 0.00 18 1015.5
20260906212624 28 180 3.2 11.3 0.00 0.00 0.00 18 1015.3
20260906212120 30 198 3.2 11.3 0.00 0.00 0.00 19 1015.4
20260906211619 30 182 3.2 6.4 0.00 0.00 0.00 17 1015.3
20260906211114 30 128 4.8 11.3 0.00 0.00 0.00 19 1015.6
20260906210610 30 161 4.8 9.7 0.00 0.00 0.00 19 1015.5
20260906210105 30 177 3.2 4.8 0.00 0.00 0.00 17 1015.6
20260906205600 30 188 3.2 6.4 0.00 0.00 0.00 19 1015.5
20260906205056 31 135 3.2 4.8 0.00 0.00 0.00 17 1015.9
20260906204555 31 183 1.6 3.2 0.00 0.00 0.00 16 1015.7
20260906204051 31 132 0.0 3.2 0.00 0.00 0.00 15 1016.0
20260906203549 31 181 3.2 4.8 0.00 0.00 0.00 17 1015.7
20260906203045 31 181 3.2 16.1 0.00 0.00 0.00 19 1015.7
20260906202541 31 142 3.2 9.7 0.00 0.00 0.00 17 1015.6
20260906202036 31 157 1.6 3.2 0.00 0.00 0.00 17 1015.9
20260906201536 31 186 6.4 9.7 0.00 0.00 0.00 18 1016.0
20260906201036 30 147 1.6 4.8 0.00 0.00 0.00 18 1016.0
20260906200532 31 193 6.4 9.7 0.00 0.00 0.00 15 1015.9
20260906200028 31 183 1.6 3.2 0.00 0.00 0.00 18 1016.0
20260906195523 30 162 3.2 12.9 0.00 0.00 0.00 18 1016.3
20260906195019 30 204 3.2 9.7 0.00 0.00 0.00 18 1016.3
20260906194515 31 227 4.8 14.5 0.00 0.00 0.00 17 1016.4
20260906194010 31 207 6.4 9.7 0.00 0.00 0.00 19 1016.3
20260906193510 31 194 1.6 4.8 0.00 0.00 0.00 21 1016.8
20260906193005 31 195 4.8 9.7 0.00 0.00 0.00 17 1016.4
20260906192501 31 204 3.2 4.8 0.00 0.00 0.00 20 1016.6
20260906191959 31 192 1.6 3.2 0.00 0.00 0.00 21 1016.7
20260906191454 31 196 3.2 4.8 0.00 0.00 0.00 16 1017.1
20260906190954 31 179 1.6 3.2 0.00 0.00 0.00 22 1017.0
20260906190453 31 251 4.8 6.4 0.00 0.00 0.00 21 1017.3
20260906185948 31 104 0.0 1.6 0.00 0.00 0.00 23 1017.5
20260906185447 30 164 0.0 3.2 0.00 0.00 0.00 21 1017.4
20260906184946 30 141 0.0 1.6 0.00 0.00 0.00 21 1017.6
20260906184442 30 72 1.6 4.8 0.00 0.00 0.00 23 1017.5
20260906183937 30 140 0.0 4.8 0.00 0.00 0.00 22 1017.7
20260906183433 30 120 0.0 1.6 0.00 0.00 0.00 23 1017.7
20260906182928 30 122 0.0 3.2 0.00 0.00 0.00 25 1017.7
20260906182424 30 118 0.0 1.6 0.00 0.00 0.00 20 1017.7
20260906181919 30 14 1.6 3.2 0.00 0.00 0.00 24 1017.8
20260906181415 28 138 0.0 1.6 0.00 0.00 0.00 26 1018.4
20260906180911 28 62 1.6 3.2 0.00 0.00 0.00 22 1018.4
20260906180405 27 163 0.0 1.6 0.00 0.00 0.00 27 1018.5
20260906175903 27 156 1.6 3.2 0.00 0.00 0.00 23 1018.8
20260906175358 27 113 0.0 1.6 0.00 0.00 0.00 24 1018.7
20260906174857 27 87 1.6 3.2 0.00 0.00 0.00 28 1019.0
20260906174356 27 218 1.6 1.6 0.00 0.00 0.00 26 1019.2
20260906173851 26 46 1.6 1.6 0.00 0.00 0.00 25 1019.1
20260906173347 26 26 3.2 3.2 0.00 0.00 0.00 28 1019.2
20260906172846 26 219 1.6 3.2 0.00 0.00 0.00 26 1019.5
20260906172342 26 267 1.6 3.2 0.00 0.00 0.00 30 1019.5
20260906171837 26 176 1.6 3.2 0.00 0.00 0.00 29 1019.5
20260906171338 25 146 0.0 4.8 0.00 0.00 0.00 29 1019.7
20260906170833 25 123 0.0 1.6 0.00 0.00 0.00 24 1019.6
20260906170329 25 75 1.6 3.2 0.00 0.00 0.00 27 1020.0
20260906165825 26 122 0.0 1.6 0.00 0.00 0.00 27 1019.8
20260906165324 26 227 0.0 3.2 0.00 0.00 0.00 27 1020.0
20260906164820 25 143 1.6 3.2 0.00 0.00 0.00 31 1020.2
20260906164319 25 135 0.0 3.2 0.00 0.00 0.00 32 1020.2
20260906163815 25 142 0.0 3.2 0.00 0.00 0.00 31 1020.2
20260906163311 24 152 0.0 1.6 0.00 0.00 0.00 34 1020.0
20260906162809 23 154 1.6 4.8 0.00 0.00 0.00 34 1020.4
20260906162308 23 80 1.6 1.6 0.00 0.00 0.00 34 1020.2
20260906161803 23 138 1.6 6.4 0.00 0.00 0.00 32 1020.2
20260906161302 22 138 0.0 3.2 0.00 0.00 0.00 33 1020.4
20260906160801 22 140 0.0 1.6 0.00 0.00 0.00 33 1020.3
20260906160255 22 155 1.6 1.6 0.00 0.00 0.00 35 1020.7
20260906155753 22 197 3.2 3.2 0.00 0.00 0.00 36 1020.7
20260906155248 21 147 0.0 1.6 0.00 0.00 0.00 37 1020.2
20260906154743 21 119 0.0 0.0 0.00 0.00 0.00 37 1020.4
20260906154238 21 127 1.6 1.6 0.00 0.00 0.00 40 1020.5
20260906153737 21 127 0.0 0.0 0.00 0.00 0.00 39 1020.4
20260906153231 20 135 0.0 0.0 0.00 0.00 0.00 41 1020.4
20260906152726 20 145 0.0 1.6 0.00 0.00 0.00 41 1020.5
20260906152221 19 109 0.0 0.0 0.00 0.00 0.00 43 1020.7
20260906151720 17 129 0.0 0.0 0.00 0.00 0.00 44 1020.7
20260906151216 16 106 0.0 1.6 0.00 0.00 0.00 51 1020.7
20260906150712 16 113 0.0 1.6 0.00 0.00 0.00 48 1020.9
20260906150207 15 142 0.0 0.0 0.00 0.00 0.00 52 1020.8
20260906145706 15 143 0.0 0.0 0.00 0.00 0.00 51 1020.8
20260906145206 14 154 0.0 1.6 0.00 0.00 0.00 58 1020.9
20260906144700 13 149 0.0 0.0 0.00 0.00 0.00 63 1020.8
20260906144155 13 153 0.0 0.0 0.00 0.00 0.00 64 1021.1
20260906143654 12 164 0.0 1.6 0.00 0.00 0.00 60 1020.9
20260906143152 12 145 0.0 1.6 0.00 0.00 0.00 64 1020.9
20260906142651 11 135 0.0 0.0 0.00 0.00 0.00 70 1020.7
20260906142147 11 139 0.0 0.0 0.00 0.00 0.00 69 1021.1
20260906141645 10 139 0.0 0.0 0.00 0.00 0.00 71 1020.9
20260906141141 10 114 0.0 0.0 0.00 0.00 0.00 73 1020.9
20260906140639 10 148 0.0 0.0 0.00 0.00 0.00 74 1020.8
20260906140135 9 157 0.0 0.0 0.00 0.00 0.00 76 1021.0
20260906135632 8 138 0.0 0.0 0.00 0.00 0.00 77 1020.8
20260906135128 8 159 0.0 0.0 0.00 0.00 0.00 75 1021.0
20260906134623 7 169 0.0 1.6 0.00 0.00 0.00 77 1020.9
20260906134118 7 194 0.0 1.6 0.00 0.00 0.00 79 1020.8
20260906133614 6 129 0.0 0.0 0.00 0.00 0.00 81 1020.9
20260906133108 6 140 0.0 0.0 0.00 0.00 0.00 82 1020.8
20260906132603 6 154 0.0 0.0 0.00 0.00 0.00 83 1020.8
20260906132059 6 133 0.0 1.6 0.00 0.00 0.00 85 1020.9
20260906131554 5 137 0.0 0.0 0.00 0.00 0.00 83 1020.7
20260906131050 5 155 0.0 0.0 0.00 0.00 0.00 82 1020.5
20260906130549 5 153 0.0 0.0 0.00 0.00 0.00 82 1020.5
20260906130045 5 173 0.0 1.6 0.00 0.00 0.00 80 1020.8
20260906125542 5 156 0.0 1.6 0.00 0.00 0.00 81 1020.4
20260906125042 5 141 0.0 0.0 0.00 0.00 0.00 83 1020.4
20260906124538 5 133 0.0 0.0 0.00 0.00 0.00 82 1020.4
20260906124033 6 155 0.0 0.0 0.00 0.00 0.00 79 1020.3
20260906123532 6 173 0.0 0.0 0.00 0.00 0.00 79 1020.4
20260906123027 6 173 0.0 0.0 0.00 0.00 0.00 80 1020.4
20260906122526 6 206 0.0 0.0 0.00 0.00 0.00 82 1020.7
20260906122023 6 185 0.0 1.6 0.00 0.00 0.00 81 1020.1
20260906121519 6 163 0.0 0.0 0.00 0.00 0.00 80 1020.4
20260906121015 6 137 0.0 1.6 0.00 0.00 0.00 81 1020.5
20260906120510 6 128 0.0 0.0 0.00 0.00 0.00 84 1020.4
20260906120008 6 132 0.0 0.0 0.00 0.00 0.00 83 1020.5
20260906115508 6 154 0.0 0.0 0.00 0.00 0.00 82 1020.3
20260906115008 6 140 0.0 0.0 0.00 0.00 0.00 80 1020.4
20260906114502 7 134 0.0 0.0 0.00 0.00 0.00 77 1020.2
20260906113958 7 119 0.0 0.0 0.00 0.00 0.00 77 1020.3
20260906113456 6 191 0.0 1.6 0.00 0.00 0.00 77 1020.1
20260906112952 6 132 0.0 0.0 0.00 0.00 0.00 78 1020.3
20260906112447 6 139 0.0 0.0 0.00 0.00 0.00 77 1020.2
20260906111943 6 130 0.0 0.0 0.00 0.00 0.00 77 1020.1
20260906111442 7 171 0.0 1.6 0.00 0.00 0.00 76 1020.1
20260906110937 7 168 0.0 1.6 0.00 0.00 0.00 76 1020.1
20260906110433 7 148 0.0 0.0 0.00 0.00 0.00 76 1020.2
20260906105932 7 130 0.0 0.0 0.00 0.00 0.00 76 1020.1
20260906105428 7 153 0.0 0.0 0.00 0.00 0.00 76 1020.0
20260906104924 7 154 0.0 0.0 0.00 0.00 0.00 75 1020.1
20260906104422 7 156 0.0 0.0 0.00 0.00 0.00 73 1020.1
20260906103921 7 158 0.0 0.0 0.00 0.00 0.00 74 1019.8
20260906103419 7 144 0.0 0.0 0.00 0.00 0.00 74 1019.7
20260906102915 7 112 0.0 0.0 0.00 0.00 0.00 74 1019.8
20260906102415 7 134 0.0 0.0 0.00 0.00 0.00 74 1019.8
20260906101909 7 123 0.0 0.0 0.00 0.00 0.00 76 1019.7
20260906101405 7 131 0.0 1.6 0.00 0.00 0.00 76 1019.8
20260906100900 7 155 0.0 0.0 0.00 0.00 0.00 75 1019.8
20260906100359 7 134 0.0 0.0 0.00 0.00 0.00 73 1019.7
20260906095854 8 154 0.0 0.0 0.00 0.00 0.00 72 1019.5
20260906095350 8 131 0.0 0.0 0.00 0.00 0.00 71 1019.7
20260906094849 8 125 0.0 1.6 0.00 0.00 0.00 71 1019.6
20260906094345 8 124 0.0 0.0 0.00 0.00 0.00 72 1019.5
20260906093841 8 156 0.0 0.0 0.00 0.00 0.00 72 1019.2
20260906093337 8 154 0.0 1.6 0.00 0.00 0.00 71 1019.6
20260906092831 8 92 1.6 1.6 0.00 0.00 0.00 73 1019.7
20260906092331 8 127 0.0 1.6 0.00 0.00 0.00 74 1019.4
20260906091827 8 138 0.0 0.0 0.00 0.00 0.00 73 1019.4
20260906091323 8 151 0.0 0.0 0.00 0.00 0.00 72 1019.2
20260906090819 8 157 1.6 3.2 0.00 0.00 0.00 71 1019.2
20260906090318 9 140 0.0 1.6 0.00 0.00 0.00 69 1019.2
20260906085818 10 271 1.6 1.6 0.00 0.00 0.00 64 1019.0
20260906085317 10 185 0.0 0.0 0.00 0.00 0.00 66 1018.9
20260906084812 10 146 0.0 0.0 0.00 0.00 0.00 64 1019.0
20260906084312 10 125 0.0 0.0 0.00 0.00 0.00 63 1018.8
20260906083807 10 166 0.0 1.6 0.00 0.00 0.00 65 1018.7
20260906083303 10 112 0.0 1.6 0.00 0.00 0.00 66 1018.9
20260906082757 9 218 1.6 1.6 0.00 0.00 0.00 68 1018.9
20260906082252 9 211 1.6 3.2 0.00 0.00 0.00 68 1018.7
20260906081748 9 159 0.0 0.0 0.00 0.00 0.00 67 1018.8
20260906081243 9 157 1.6 3.2 0.00 0.00 0.00 67 1018.5
20260906080739 10 280 1.6 3.2 0.00 0.00 0.00 66 1018.8
20260906080236 9 168 0.0 0.0 0.00 0.00 0.00 67 1018.8
20260906075736 9 158 0.0 0.0 0.00 0.00 0.00 68 1018.7
20260906075236 9 158 0.0 0.0 0.00 0.00 0.00 69 1018.8
20260906074731 10 151 0.0 1.6 0.00 0.00 0.00 69 1018.5
20260906074230 9 151 0.0 0.0 0.00 0.00 0.00 68 1018.7
20260906073730 9 158 0.0 1.6 0.00 0.00 0.00 70 1018.9
20260906073225 8 115 0.0 0.0 0.00 0.00 0.00 71 1018.8
20260906072721 9 165 0.0 0.0 0.00 0.00 0.00 72 1018.7
20260906072216 9 144 0.0 0.0 0.00 0.00 0.00 72 1018.5
20260906071712 9 124 1.6 1.6 0.00 0.00 0.00 69 1018.7
20260906071212 9 163 0.0 1.6 0.00 0.00 0.00 69 1018.4
20260906070708 10 124 0.0 0.0 0.00 0.00 0.00 70 1018.5
20260906070204 10 111 0.0 1.6 0.00 0.00 0.00 69 1018.5
20260906065703 10 173 0.0 1.6 0.00 0.00 0.00 67 1018.4
20260906065159 10 186 4.8 4.8 0.00 0.00 0.00 67 1018.4
20260906064654 9 175 0.0 1.6 0.00 0.00 0.00 68 1018.5
20260906064150 9 116 0.0 1.6 0.00 0.00 0.00 69 1018.4
20260906063645 10 103 0.0 0.0 0.00 0.00 0.00 70 1018.5
20260906063140 10 136 0.0 0.0 0.00 0.00 0.00 70 1018.5
20260906062636 10 148 0.0 0.0 0.00 0.00 0.00 69 1018.5
20260906062135 10 122 0.0 0.0 0.00 0.00 0.00 66 1018.9
20260906061631 10 152 0.0 1.6 0.00 0.00 0.00 65 1018.5
20260906061131 10 123 0.0 1.6 0.00 0.00 0.00 66 1018.7
20260906060628 10 145 0.0 1.6 0.00 0.00 0.00 68 1018.7
20260906060125 10 149 0.0 0.0 0.00 0.00 0.00 67 1018.9
20260906055620 10 144 0.0 1.6 0.00 0.00 0.00 67 1019.0
20260906055115 11 136 0.0 0.0 0.00 0.00 0.00 67 1018.7
20260906054610 11 120 0.0 0.0 0.00 0.00 0.00 67 1018.8
20260906054105 11 124 0.0 0.0 0.00 0.00 0.00 61 1018.7
20260906053602 11 208 1.6 1.6 0.00 0.00 0.00 63 1018.9
20260906053057 11 176 0.0 1.6 0.00 0.00 0.00 65 1018.9
20260906052552 11 137 0.0 1.6 0.00 0.00 0.00 66 1018.8
20260906052049 11 126 0.0 1.6 0.00 0.00 0.00 67 1018.8
20260906051544 11 92 1.6 1.6 0.00 0.00 0.00 68 1018.5
20260906051040 11 72 1.6 1.6 0.00 0.00 0.00 66 1018.9
20260906050535 11 134 0.0 0.0 0.00 0.00 0.00 67 1019.1
20260906050030 12 115 0.0 0.0 0.00 0.00 0.00 62 1019.0
20260906045528 12 160 0.0 1.6 0.00 0.00 0.00 63 1019.0
20260906045024 12 120 0.0 0.0 0.00 0.00 0.00 63 1019.0
20260906044520 12 148 0.0 0.0 0.00 0.00 0.00 61 1019.0
20260906044015 12 197 0.0 1.6 0.00 0.00 0.00 59 1019.1
20260906043510 12 186 1.6 3.2 0.00 0.00 0.00 62 1018.9
20260906043007 12 140 0.0 1.6 0.00 0.00 0.00 63 1019.0
20260906042505 12 120 0.0 0.0 0.00 0.00 0.00 63 1018.9
20260906042005 13 132 0.0 0.0 0.00 0.00 0.00 62 1018.9
20260906041502 13 129 0.0 0.0 0.00 0.00 0.00 58 1019.1
20260906041001 13 105 0.0 3.2 0.00 0.00 0.00 59 1018.9
20260906040456 13 261 0.0 1.6 0.00 0.00 0.00 60 1019.0
20260906035951 13 169 0.0 1.6 0.00 0.00 0.00 60 1018.9
20260906035446 13 149 0.0 1.6 0.00 0.00 0.00 60 1019.0
20260906034937 13 151 0.0 1.6 0.00 0.00 0.00 60 1018.9
20260906034437 13 106 0.0 0.0 0.00 0.00 0.00 59 1019.0
20260906033932 14 119 0.0 0.0 0.00 0.00 0.00 59 1018.8
20260906033432 15 115 0.0 0.0 0.00 0.00 0.00 57 1018.8
20260906032928 15 144 0.0 0.0 0.00 0.00 0.00 53 1018.9
20260906032425 15 135 0.0 3.2 0.00 0.00 0.00 54 1018.7
20260906031924 14 140 0.0 0.0 0.00 0.00 0.00 56 1018.8
20260906031420 14 131 0.0 0.0 0.00 0.00 0.00 57 1018.8
20260906030915 15 127 0.0 0.0 0.00 0.00 0.00 56 1018.7
20260906030410 15 117 0.0 0.0 0.00 0.00 0.00 54 1018.4
20260906025905 15 131 0.0 0.0 0.00 0.00 0.00 54 1018.5
20260906025405 16 118 0.0 0.0 0.00 0.00 0.00 48 1018.4
20260906024903 16 118 0.0 0.0 0.00 0.00 0.00 48 1018.3
20260906024403 16 123 0.0 0.0 0.00 0.00 0.00 47 1018.2
20260906023858 16 110 0.0 1.6 0.00 0.00 0.00 49 1018.5
20260906023355 17 118 0.0 0.0 0.00 0.00 0.00 47 1018.2
20260906022854 17 129 0.0 0.0 0.00 0.00 0.00 44 1017.8
20260906022349 17 120 0.0 0.0 0.00 0.00 0.00 44 1018.1
20260906021845 18 120 0.0 0.0 0.00 0.00 0.00 42 1018.0
20260906021344 18 121 0.0 0.0 0.00 0.00 0.00 40 1017.6
20260906020839 19 121 0.0 0.0 0.00 0.00 0.00 38 1017.8
20260906020339 19 136 0.0 1.6 0.00 0.00 0.00 38 1018.0
20260906015833 19 133 0.0 1.6 0.00 0.00 0.00 40 1017.8
20260906015333 20 102 0.0 0.0 0.00 0.00 0.00 38 1017.6
20260906014832 20 138 0.0 0.0 0.00 0.00 0.00 40 1017.8
20260906014327 21 122 0.0 0.0 0.00 0.00 0.00 41 1017.6
20260906013824 22 119 0.0 0.0 0.00 0.00 0.00 39 1017.5
20260906013319 23 113 0.0 0.0 0.00 0.00 0.00 32 1017.6
20260906012814 25 114 0.0 0.0 0.00 0.00 0.00 27 1017.6
20260906012315 26 136 0.0 0.0 0.00 0.00 0.00 27 1017.7
20260906011809 26 136 0.0 0.0 0.00 0.00 0.00 26 1017.6
20260906011309 27 104 0.0 3.2 0.00 0.00 0.00 24 1017.5
20260906010806 27 199 1.6 3.2 0.00 0.00 0.00 23 1017.7
20260906010302 27 162 1.6 3.2 0.00 0.00 0.00 24 1017.7
20260906005756 28 279 3.2 4.8 0.00 0.00 0.00 22 1017.6
20260906005255 28 262 1.6 3.2 0.00 0.00 0.00 22 1017.8
20260906004754 28 105 1.6 4.8 0.00 0.00 0.00 22 1017.6
20260906004250 29 214 1.6 3.2 0.00 0.00 0.00 21 1017.6
20260906003750 29 156 1.6 3.2 0.00 0.00 0.00 20 1017.6
20260906003245 29 144 1.6 3.2 0.00 0.00 0.00 21 1017.6
20260906002740 30 116 1.6 3.2 0.00 0.00 0.00 21 1017.5
20260906002240 30 166 1.6 1.6 0.00 0.00 0.00 21 1017.4
20260906001736 29 195 3.2 3.2 0.00 0.00 0.00 20 1017.7
20260906001231 30 183 1.6 4.8 0.00 0.00 0.00 19 1017.5
20260906000726 30 184 6.4 9.7 0.00 0.00 0.00 18 1017.4
20260906000226 30 186 1.6 6.4 0.00 0.00 0.00 18 1017.4
20260905235721 30 167 1.6 9.7 0.00 0.00 0.00 18 1017.5
20260905235215 30 238 1.6 4.8 0.00 0.00 0.00 19 1017.7
20260905234711 30 248 3.2 6.4 0.00 0.00 0.00 18 1017.5
20260905234206 30 245 3.2 9.7 0.00 0.00 0.00 17 1017.5
20260905233702 30 125 3.2 12.9 0.00 0.00 0.00 19 1017.5
20260905233201 30 215 4.8 14.5 0.00 0.00 0.00 17 1017.5
20260905232656 30 203 3.2 6.4 0.00 0.00 0.00 20 1017.5
20260905232152 29 195 4.8 11.3 0.00 0.00 0.00 19 1017.3
20260905231647 29 259 6.4 11.3 0.00 0.00 0.00 18 1017.5
20260905231143 30 207 6.4 14.5 0.00 0.00 0.00 17 1017.3
20260905230639 31 279 8.0 12.9 0.00 0.00 0.00 16 1017.4
20260905230137 31 198 6.4 9.7 0.00 0.00 0.00 16 1017.4
20260905225636 31 245 3.2 6.4 0.00 0.00 0.00 17 1017.5
20260905225131 31 314 3.2 9.7 0.00 0.00 0.00 17 1017.4
20260905224630 31 151 3.2 12.9 0.00 0.00 0.00 17 1017.5
20260905224130 31 178 3.2 9.7 0.00 0.00 0.00 16 1017.3